Hourly Data Report for August 20, 2021

FLIN FLON
MANITOBA
Current Station Operator: ECCC - MSC

54°41'00.000" N
101°41'00.000" W
303.90 m
5050919
71954
WFO

Download Data

Hourly Data (August 2021)
Hourly Data Report for August 20, 2021
TIME
LST
Temp Definition
°C
Dew Point Definition
°C
Rel Hum Definition
%
Precip. Amount Definition
mm

Wind Dir Definition
10's deg

Wind Spd Definition
km/h
Visibility Definition
km
Stn Press Definition
kPa
Hmdx Definition


Wind Chill Definition


Weather Definition


00:00 13.5 8.9 74 0.0 15 3   97.78     LegendNANA
01:00 13.2 9.4 78 0.0 12 6   97.75     LegendNANA
02:00 12.9 9.1 78 0.0 12 5   97.71     LegendNANA
03:00 12.9 9.1 78 0.0 12 4   97.67     LegendNANA
04:00 12.0 9.4 84 0.0 0 1   97.65     LegendNANA
05:00 11.4 9.4 87 0.0   0   97.60     LegendNANA
06:00 11.4 9.6 89 0.0 2 3   97.59     LegendNANA
07:00 12.4 10.5 88 0.0 11 2   97.59     LegendNANA
08:00 13.3 10.5 83 0.0 10 1   97.59     LegendNANA
09:00 14.0 10.5 80 0.0 30 2   97.56     LegendNANA
10:00 14.4 10.4 77 0.0 15 5   97.53     LegendNANA
11:00 14.6 11.0 79 0.0 20 6   97.53     LegendNANA
12:00 14.7 10.7 77 0.0 20 5   97.49     LegendNANA
13:00 14.8 10.8 77 0.0 19 6   97.46     LegendNANA
14:00 14.8 10.2 74 0.0 19 3   97.43     LegendNANA
15:00 15.0 10.3 73 0.0 20 4   97.41     LegendNANA
16:00 15.2 10.7 74 0.0 28 5   97.38     LegendNANA
17:00 15.2 11.1 76 0.0 29 5   97.34     LegendNANA
18:00 15.6 10.9 74 0.0 30 3   97.31     LegendNANA
19:00 15.2 10.8 75 0.0 29 3   97.30     LegendNANA
20:00 14.5 10.5 77 0.0 30 6   97.23     LegendNANA
21:00 14.2 10.7 79 0.0 30 5   97.21     LegendNANA
22:00 14.1 10.8 80 0.0 31 5   97.17     LegendNANA
23:00 14.0 11.1 83 0.0 34 11   97.13     LegendNANA

Notes on Data Quality.

Legend

  • E = Estimated
  • M = Missing
  • NA = Not Available*
  • [empty] = Indicates an unobserved value
Date modified: